Weather History for Ellensburg, WA

Change the Weather History Date:

Tuesday, March 18, 2014

  Actual Average (KYKM) Record (KYKM)
Temperature  
Mean Temperature 42 °F 44 °F  
Max Temperature 55 °F 57 °F 78 °F (1947)
Min Temperature 30 °F 31 °F 15 °F (1965)
Degree Days  
Heating Degree Days 22 21  
Month to date heating degree days 420  
Since 1 July heating degree days 4947  
Cooling Degree Days 0 0  
Month to date cooling degree days 0  
Year to date cooling degree days 0  
Moisture  
Dew Point 28 °F    
Average Humidity 56    
Maximum Humidity 73    
Minimum Humidity 37    
Precipitation  
Precipitation 0.00 in 0.02 in 0.29 in (1949)
Month to date precipitation 0.41  
Year to date precipitation 2.33  
Snow  
Snow 0.00 in 0.00 in 0.00 in (2002)
Month to date snowfall 0.6  
Year to date snowfall 8.5  
Since 1 July snowfall 21.5  
Snow Depth -    
Sea Level Pressure  
Sea Level Pressure 30.22 in    
Wind  
Wind Speed 14 mph (NW)    
Max Wind Speed 23 mph    
Max Gust Speed 25 mph    
Visibility 10 miles    
Events      
T = Trace of Precipitation, MM = Missing Value Source: NWS Daily Summary

Daily Weather History Graph

Daily Weather History Graph

Search for Another Location

Airport:

Trip Planner

Search our weather history database for the weather conditions in past years. The results will help you decide how hot, cold, wet, or windy it might be!

Date:

Astronomy

Mar. 18, 2014 Rise Set
Actual Time 7:08 AM PDT 7:12 PM PDT
Civil Twilight 6:38 AM PDT 7:42 PM PDT
Nautical Twilight 6:02 AM PDT 8:18 PM PDT
Astronomical Twilight 5:26 AM PDT 8:54 PM PDT
Moon 9:45 PM PDT (3/18) 7:52 AM PDT (3/18)
Length of Visible Light 13h 04m
Length of Day
12h 03m
Waning Gibbous, 96% of the Moon is Illuminated
Mar 18
Waning Gibbous
Mar 23
Last Quarter
Mar 30
New
Apr 7
First Quarter
Apr 15
Full

Hourly Weather History & Observations

Time (PDT) Temp. Windchill Dew Point Humidity Pressure Visibility Wind Dir Wind Speed Gust Speed Precip Events Conditions
12:53 AM 37.0 °F 25.9 °F 24.1 °F 59% 30.23 in 10.0 mi NW 23.0 mph - N/A   Clear
1:53 AM 35.1 °F 25.2 °F 23.0 °F 61% 30.25 in 10.0 mi NNW 16.1 mph - N/A   Clear
2:53 AM 36.0 °F 24.7 °F 24.1 °F 62% 30.24 in 10.0 mi NNW 21.9 mph - N/A   Clear
3:53 AM 36.0 °F 25.6 °F 24.1 °F 62% 30.25 in 10.0 mi NW 18.4 mph - N/A   Clear
4:53 AM 36.0 °F 27.5 °F 25.0 °F 64% 30.25 in 10.0 mi NW 12.7 mph - N/A   Clear
5:53 AM 35.1 °F 25.5 °F 25.0 °F 67% 30.25 in 10.0 mi NW 15.0 mph - N/A   Clear
6:53 AM 30.9 °F 26.2 °F 19.9 °F 64% 30.27 in 10.0 mi ENE 4.6 mph - N/A   Clear
7:53 AM 30.0 °F - 19.9 °F 66% 30.28 in 10.0 mi Calm Calm - N/A   Clear
8:53 AM 37.9 °F - 24.1 °F 57% 30.28 in 10.0 mi Calm Calm - N/A   Clear
9:53 AM 42.1 °F - 26.1 °F 53% 30.28 in 10.0 mi Calm Calm - N/A   Clear
10:53 AM 46.0 °F - 26.1 °F 46% 30.27 in 10.0 mi Calm Calm - N/A   Clear
11:53 AM 51.1 °F - 28.9 °F 43% 30.26 in 10.0 mi Variable 4.6 mph - N/A   Clear
12:53 PM 54.0 °F - 30.0 °F 40% 30.23 in 10.0 mi Variable 4.6 mph - N/A   Clear
1:53 PM 55.0 °F - 28.9 °F 37% 30.22 in 10.0 mi WNW 19.6 mph - N/A   Partly Cloudy
2:53 PM 55.9 °F - 30.0 °F 37% 30.20 in 10.0 mi WNW 19.6 mph 25.3 mph N/A   Partly Cloudy
3:53 PM 53.1 °F - 32.0 °F 45% 30.20 in 10.0 mi WNW 20.7 mph 25.3 mph N/A   Mostly Cloudy
4:53 PM 55.0 °F - 30.9 °F 40% 30.18 in 10.0 mi NW 18.4 mph - N/A   Mostly Cloudy
5:53 PM 51.1 °F - 30.9 °F 46% 30.17 in 10.0 mi NW 19.6 mph - N/A   Clear
6:53 PM 48.0 °F - 33.1 °F 56% 30.18 in 10.0 mi NNW 10.4 mph - N/A   Clear
7:53 PM 45.0 °F 39.7 °F 33.1 °F 63% 30.19 in 10.0 mi NW 10.4 mph - N/A   Scattered Clouds
8:53 PM 43.0 °F 36.8 °F 33.1 °F 68% 30.17 in 10.0 mi NNW 11.5 mph - N/A   Clear
9:53 PM 43.0 °F 37.2 °F 33.1 °F 68% 30.16 in 10.0 mi NNW 10.4 mph - N/A   Clear
10:53 PM 39.9 °F 34.5 °F 32.0 °F 73% 30.16 in 10.0 mi WNW 8.1 mph - N/A   Clear
11:53 PM 41.0 °F 35.2 °F 33.1 °F 73% 30.14 in 10.0 mi NW 9.2 mph - N/A   Mostly Cloudy